Starlink 2699

operational
NORAD ID: 48433 Int'l Des: 2021-040 Owner: SPXS Country: US Constellation: starlink
LEOCIRCULARSTARLINK_TYPE

Starlink 2699について

説明を読み込み中...

リアルタイム位置

3D地球を読み込み中...

次回通過

高度履歴

Altitude vs Time

uPlot chart will show altitude changes over time

軌道要素

1 48433U 21040F 26034.23177138 .00002409 00000-0 18055-3 0 9993
2 48433 53.0538 306.5843 0001512 102.6266 257.4892 15.06409616261845
Epoch: Feb 3, 2026 • Age: 49 hours

現在のステータス

高度 563.9 km
速度 7.58 km/s
衛星直下点 -46.97°S, 60.99°W
打ち上げ日 May 9, 2021
運用期間 4.7 years
タイプ internet

技術仕様

分類 Payload
質量 260.00 kg
乾燥質量 248.00 kg
総質量 260.00 kg
長さ 0.20 m
直径 2.80 m
スパン 9.00 m
形状 Box + pan
製造者 SPXS
バスタイプ Starlink
フェーズステータス In Orbit
所有者/国 SPXS/US

大規模コンステレーション

Loading constellations...